User: anonymous   Login
Location: Owatonna
(44.0840°N, 93.2260°W)
Time: 00:18:00
(UTC-06:00)
Language:

ALOS - Orbit

View from above orbital plane
View from above orbital plane
View from above satellite
View from above satellite

Ground track
Ground track

The orbit data is extracted from the following two-line orbital elements,

1 28931U 06002A   15028.22803695  .00000581  00000-0  12578-3 0  1691
2 28931 097.9538 083.1068 0001545 135.1455 224.9871 14.61632590480193
Epoch (UTC): 28 January 2015 05:28:22
Eccentricity: 0.0001545
inclination: 97.9538°
perigee height: 687 km
apogee height: 689 km
right ascension of ascending node: 83.1068°
argument of perigee: 135.1455°
revolutions per day: 14.61632590
mean anomaly at epoch: 224.9871°
orbit number at epoch: 48019

The dashed part of the orbit path shows where the satellite is in the earth's shadow,  

DLR